Terminal Aerodrome Forecast
Issued by NWS Omaha/Valley, NE

Home | Current Version | Previous Version | Graphics & Text | Print | Product List | Glossary On
Versions: 1 2 3 4 5 6 7 8 9 10 11 12 13 14 15 16 17 18 19 20 21 22 23 24 25 26 27 28 29 30 31 32 33 34 35 36 37 38 39 40 41 42 43 44
000
FTUS43 KOAX 261724
TAFOFK
TAF
KOFK 261724Z 2618/2718 10005KT P6SM BKN120
     FM270400 12008KT P6SM -SHRA OVC040
      TEMPO 2705/2709 3SM TSRA BR OVC025CB
     FM271000 12005KT P6SM -SHRA OVC025=

USA.gov is the U.S. government's official web portal to all federal, state and local government web resources and services.